Regional Weather Roundup
Issued by NWS

Home | Current Version | Previous Version | Graphics & Text | Print | Product List | Glossary On
Versions: 1 2 3 4 5 6 7 8 9 10 11 12 13 14 15 16 17 18 19 20 21 22 23 24 25 26 27 28 29 30 31 32 33 34 35 36 37 38 39 40 41 42 43 44 45 46 47 48 49 50
000
ASUS45 KBOU 291500
RWRCO

WEATHER ROUNDUP FOR COLORADO
NATIONAL WEATHER SERVICE PUEBLO CO
900 AM MDT MON JUN 29 2015

NOTE: "FAIR" INDICATES FEW OR NO CLOUDS BELOW 12000 FEET WITH NO
SIGNIFICANT WEATHER AND/OR OBSTRUCTIONS TO VISIBILITY.

COZ001>005-013-030-031-291600-
...NORTHWEST COLORADO...

CITY           SKY/WX    TMP DP  RH WIND       PRES   REMARKS
CRAIG          SUNNY     71  49  45 CALM      30.31R
HAYDEN         SUNNY     66  45  45 E5        30.33S
MEEKER         SUNNY     69  49  48 SE3       30.32S
MOUNT WERNER   NOT AVBL
STEAMBOAT SPGS FAIR      64  49  57 CALM      30.35S
WALDEN         FAIR      59  45  58 CALM      30.44F
$$

COZ006>008-011-291600-
...WEST CENTRAL VALLEYS...

CITY           SKY/WX    TMP DP  RH WIND       PRES   REMARKS
GRAND JUNCTION SUNNY     80  46  30 SE13      30.18R
MONTROSE       MOSUNNY   76  49  38 CALM      30.28S
EAGLE          MOSUNNY   66  46  48 CALM      30.37F
RIFLE          SUNNY     75  47  36 CALM      30.25S
DELTA          NOT AVBL
NUCLA          FAIR      72  45  37 E5        30.32S
$$

COZ017>023-064>068-291600-
...SOUTHWEST COLORADO...

CITY           SKY/WX    TMP DP  RH WIND       PRES   REMARKS
DURANGO        SUNNY     73  47  39 NE3       30.33F
CORTEZ         SUNNY     75  48  38 VRB3      30.28S
PAGOSA SPRINGS FAIR      65  47  53 CALM      30.42F
TELLURIDE      PTSUNNY   63  46  54 CALM      30.54S
WOLF CREEK PAS NOT AVBL
$$

COZ009-010-012-014-032>034-037-058>063-291600-
...CENTRAL COLORADO...

CITY           SKY/WX    TMP DP  RH WIND       PRES   REMARKS
ASPEN          MOSUNNY   67  46  47 N5        30.41S
BUENA VISTA    FAIR      60  49  65 W6        30.43F
COPPER MTN     SUNNY     59  37  44 W14       30.73S
BERTHOUD PASS  FAIR      50  39  66 MISG      30.78R
COTTONWOOD PAS NOT AVBL
GUNNISON       MOSUNNY   61  46  59 N3        30.48F
KREMMLING      SUNNY     61  43  51 CALM      30.43F
LEADVILLE      MOSUNNY   58  44  60 CALM      30.55F
MONARCH PASS   NOT AVBL
SALIDA         PTSUNNY   63  50  63 SW3       30.48S
NIWOT RIDGE    NOT AVBL
SUNLIGHT       SUNNY     63  41  45 CALM      30.67S
WILKERSON PASS MOSUNNY   55  37  50 E7        30.69S
$$

COZ069>075-291600-
...SAN LUIS VALLEY/SANGRE DE CRISTO MOUNTAINS...

CITY           SKY/WX    TMP DP  RH WIND       PRES   REMARKS
ALAMOSA        CLOUDY    61  49  64 CALM      30.42R
LA VETA PASS   MOSUNNY   55  41  58 MISG      30.58S
SAGUACHE       PTSUNNY   63  46  55 NW8       30.44S
$$

COZ035-036-038>040-291600-
...NORTHERN COLORADO FRONT RANGE...

CITY           SKY/WX    TMP DP  RH WIND       PRES   REMARKS
DENVER INTL AP MOSUNNY   71  54  54 W5        30.27R
DMNS CITY PARK NOT AVBL
AURORA         MOSUNNY   69  58  69 W6        30.30R
FRONT RANGE AP MOSUNNY   70  59  68 SW3       30.28R
ERIE MUNI ARPT FAIR      71  56  59 N3        30.27F
BOULDER MUN AP FAIR      72  50  46 N5        30.28S
CENTENNIAL     MOSUNNY   70  55  59 N7        30.30R
BROOMFIELD     MOSUNNY   72  54  53 N7        30.30S
LOVELAND       SUNNY     70  55  60 SW7       30.27S
LONGMONT       FAIR      76  55  48 CALM      30.28F HAZE
$$

COZ041-046-047-076>085-087-088-291600-
...PIKES PEAK/PALMER DIVIDE AND SOUTHERN FOOTHILLS...

CITY           SKY/WX    TMP DP  RH WIND       PRES   REMARKS
COLO. SPRINGS  PTSUNNY   72  52  49 E8G30     30.34R
A. F. ACADEMY  MOSUNNY   68  51  52 N15       30.33R
ELLICOTT       FAIR     N/A N/A N/A E16G26    30.31R
FALCON         PTSUNNY   66  52  59 NE10      30.38R
FORT CARSON    NOT AVBL
LIMON          CLOUDY    64  55  72 S6        30.26S
MONUMENT HILL  PTSUNNY   64  50  59 NW9         N/A
TRINIDAD       MOSUNNY   70  51  51 N3        30.26S
$$

COZ042>045-048>051-090-091-291600-
...NORTHEAST COLORADO...

CITY           SKY/WX    TMP DP  RH WIND       PRES   REMARKS
GREELEY ARPT   SUNNY     72  55  56 W5        30.25R
AKRON          MOSUNNY   76  54  46 S13       30.19S
BURLINGTON     LGT RAIN  68  55  63 NE7       30.18F
WRAY           FAIR      83  51  32 S5        30.13S
STERLING       FAIR      81  54  39 S6        30.14S
HOLYOKE        FAIR      81  55  41 CALM      30.14R
FORT MORGAN    FAIR      73  -5   4 S8        30.21S
$$

COZ086-089-092>099-291600-
...SOUTHEAST COLORADO...

CITY           SKY/WX    TMP DP  RH WIND       PRES   REMARKS
PUEBLO         MOSUNNY   72  59  63 NE8       30.22R
LA JUNTA       CLOUDY    68  59  73 CALM      30.19R
LAMAR          CLOUDY    67  61  81 N6        30.17R
SPRINGFIELD      N/A     75  52  44 NE6       30.18R
$$




USA.gov is the U.S. government's official web portal to all federal, state and local government web resources and services.